#datetime,building,power
2021-12-26T00:00:00,mnr,7.14
2021-12-26T00:01:00,mnr,7.67
2021-12-26T00:02:00,mnr,7.84
2021-12-26T00:03:00,mnr,7.27
2021-12-26T00:04:00,mnr,7.34
2021-12-26T00:05:00,mnr,7.41
2021-12-26T00:06:00,mnr,7.52
2021-12-26T00:07:00,mnr,7.23
2021-12-26T00:08:00,mnr,7.14
2021-12-26T00:09:00,mnr,7.58
2021-12-26T00:10:00,mnr,7.76
2021-12-26T00:11:00,mnr,7.16
2021-12-26T00:12:00,mnr,7.19
2021-12-26T00:13:00,mnr,7.16
2021-12-26T00:14:00,mnr,7.57
2021-12-26T00:15:00,mnr,7.33
2021-12-26T00:16:00,mnr,7.29
2021-12-26T00:17:00,mnr,7.34
2021-12-26T00:18:00,mnr,7.20
2021-12-26T00:19:00,mnr,7.18
2021-12-26T00:20:00,mnr,7.20
2021-12-26T00:21:00,mnr,7.30
2021-12-26T00:22:00,mnr,7.19
2021-12-26T00:23:00,mnr,7.14
2021-12-26T00:24:00,mnr,7.45
2021-12-26T00:25:00,mnr,8.25
2021-12-26T00:26:00,mnr,7.14
2021-12-26T00:27:00,mnr,7.15
2021-12-26T00:28:00,mnr,7.13
2021-12-26T00:29:00,mnr,7.54
2021-12-26T00:30:00,mnr,7.11
2021-12-26T00:31:00,mnr,7.08
2021-12-26T00:32:00,mnr,7.54
2021-12-26T00:33:00,mnr,7.57
2021-12-26T00:34:00,mnr,7.16
2021-12-26T00:35:00,mnr,7.32
2021-12-26T00:36:00,mnr,7.12
2021-12-26T00:37:00,mnr,7.63
2021-12-26T00:38:00,mnr,6.91
2021-12-26T00:39:00,mnr,6.91
2021-12-26T00:40:00,mnr,6.95
2021-12-26T00:41:00,mnr,6.90
2021-12-26T00:42:00,mnr,6.96
2021-12-26T00:43:00,mnr,6.91
2021-12-26T00:44:00,mnr,7.03
2021-12-26T00:45:00,mnr,7.06
2021-12-26T00:46:00,mnr,6.99
2021-12-26T00:47:00,mnr,7.02
2021-12-26T00:48:00,mnr,7.05
2021-12-26T00:49:00,mnr,7.12
2021-12-26T00:50:00,mnr,7.14
2021-12-26T00:51:00,mnr,7.18
2021-12-26T00:52:00,mnr,7.27
2021-12-26T00:53:00,mnr,7.17
2021-12-26T00:54:00,mnr,7.25
2021-12-26T00:55:00,mnr,7.14
2021-12-26T00:56:00,mnr,7.64
2021-12-26T00:57:00,mnr,7.04
2021-12-26T00:58:00,mnr,7.02
2021-12-26T00:59:00,mnr,7.03
2021-12-26T01:00:00,mnr,8.03
2021-12-26T01:01:00,mnr,7.03
2021-12-26T01:02:00,mnr,6.95
2021-12-26T01:03:00,mnr,6.96
2021-12-26T01:04:00,mnr,6.99
2021-12-26T01:05:00,mnr,7.05
2021-12-26T01:06:00,mnr,6.96
2021-12-26T01:07:00,mnr,7.44
2021-12-26T01:08:00,mnr,6.89
2021-12-26T01:09:00,mnr,6.90
2021-12-26T01:10:00,mnr,6.99
2021-12-26T01:11:00,mnr,6.95
2021-12-26T01:12:00,mnr,7.67
2021-12-26T01:13:00,mnr,7.01
2021-12-26T01:14:00,mnr,7.01
2021-12-26T01:15:00,mnr,7.43
2021-12-26T01:16:00,mnr,6.96
2021-12-26T01:17:00,mnr,7.04
2021-12-26T01:18:00,mnr,7.01
2021-12-26T01:19:00,mnr,7.46
2021-12-26T01:20:00,mnr,6.97
2021-12-26T01:21:00,mnr,7.41
2021-12-26T01:22:00,mnr,7.05
2021-12-26T01:23:00,mnr,7.01
2021-12-26T01:24:00,mnr,7.61
2021-12-26T01:25:00,mnr,6.98
2021-12-26T01:26:00,mnr,6.98
2021-12-26T01:27:00,mnr,7.76
2021-12-26T01:28:00,mnr,6.99
2021-12-26T01:29:00,mnr,6.99
2021-12-26T01:30:00,mnr,7.48
2021-12-26T01:31:00,mnr,6.93
2021-12-26T01:32:00,mnr,6.88
2021-12-26T01:33:00,mnr,6.83
2021-12-26T01:34:00,mnr,6.87
2021-12-26T01:35:00,mnr,6.86
2021-12-26T01:36:00,mnr,6.83
2021-12-26T01:37:00,mnr,6.82
2021-12-26T01:38:00,mnr,7.30
2021-12-26T01:39:00,mnr,7.03
2021-12-26T01:40:00,mnr,6.80
2021-12-26T01:41:00,mnr,6.83
2021-12-26T01:42:00,mnr,8.57
2021-12-26T01:43:00,mnr,6.83
2021-12-26T01:44:00,mnr,6.83
2021-12-26T01:45:00,mnr,6.92
2021-12-26T01:46:00,mnr,6.92
2021-12-26T01:47:00,mnr,6.90
2021-12-26T01:48:00,mnr,6.99
2021-12-26T01:49:00,mnr,6.99
2021-12-26T01:50:00,mnr,6.98
2021-12-26T01:51:00,mnr,7.24
2021-12-26T01:52:00,mnr,7.43
2021-12-26T01:53:00,mnr,6.86
2021-12-26T01:54:00,mnr,7.01
2021-12-26T01:55:00,mnr,6.89
2021-12-26T01:56:00,mnr,6.90
2021-12-26T01:57:00,mnr,7.42
2021-12-26T01:58:00,mnr,6.85
2021-12-26T01:59:00,mnr,6.84
2021-12-26T02:00:00,mnr,6.88
2021-12-26T02:01:00,mnr,7.39
2021-12-26T02:02:00,mnr,7.07
2021-12-26T02:03:00,mnr,6.90
2021-12-26T02:04:00,mnr,7.52
2021-12-26T02:05:00,mnr,7.42
2021-12-26T02:06:00,mnr,6.89
2021-12-26T02:07:00,mnr,6.93
2021-12-26T02:08:00,mnr,6.90
2021-12-26T02:09:00,mnr,6.96
2021-12-26T02:10:00,mnr,7.53
2021-12-26T02:11:00,mnr,6.84
2021-12-26T02:12:00,mnr,6.85
2021-12-26T02:13:00,mnr,6.88
2021-12-26T02:14:00,mnr,6.81
2021-12-26T02:15:00,mnr,6.90
2021-12-26T02:16:00,mnr,6.95
2021-12-26T02:17:00,mnr,6.87
2021-12-26T02:18:00,mnr,6.90
2021-12-26T02:19:00,mnr,6.91
2021-12-26T02:20:00,mnr,7.96
2021-12-26T02:21:00,mnr,6.87
2021-12-26T02:22:00,mnr,6.85
2021-12-26T02:23:00,mnr,6.87
2021-12-26T02:24:00,mnr,7.43
2021-12-26T02:25:00,mnr,7.15
2021-12-26T02:26:00,mnr,6.92
2021-12-26T02:27:00,mnr,6.99
2021-12-26T02:28:00,mnr,6.92
2021-12-26T02:29:00,mnr,6.92
2021-12-26T02:30:00,mnr,6.93
2021-12-26T02:31:00,mnr,6.87
2021-12-26T02:32:00,mnr,6.99
2021-12-26T02:33:00,mnr,6.89
2021-12-26T02:34:00,mnr,6.93
2021-12-26T02:35:00,mnr,6.94
2021-12-26T02:36:00,mnr,6.92
2021-12-26T02:37:00,mnr,7.52
2021-12-26T02:38:00,mnr,6.83
2021-12-26T02:39:00,mnr,7.21
2021-12-26T02:40:00,mnr,7.01
2021-12-26T02:41:00,mnr,7.69
2021-12-26T02:42:00,mnr,7.06
2021-12-26T02:43:00,mnr,7.48
2021-12-26T02:44:00,mnr,7.06
2021-12-26T02:45:00,mnr,6.98
2021-12-26T02:46:00,mnr,6.80
2021-12-26T02:47:00,mnr,7.39
2021-12-26T02:48:00,mnr,6.91
2021-12-26T02:49:00,mnr,6.90
2021-12-26T02:50:00,mnr,6.89
2021-12-26T02:51:00,mnr,6.83
2021-12-26T02:52:00,mnr,7.50
2021-12-26T02:53:00,mnr,6.90
2021-12-26T02:54:00,mnr,6.84
2021-12-26T02:55:00,mnr,6.86
2021-12-26T02:56:00,mnr,7.10
2021-12-26T02:57:00,mnr,6.88
2021-12-26T02:58:00,mnr,6.82
2021-12-26T02:59:00,mnr,6.88
2021-12-26T03:00:00,mnr,6.89
2021-12-26T03:01:00,mnr,6.93
2021-12-26T03:02:00,mnr,7.41
2021-12-26T03:03:00,mnr,6.93
2021-12-26T03:04:00,mnr,6.93
2021-12-26T03:05:00,mnr,6.86
2021-12-26T03:06:00,mnr,7.95
2021-12-26T03:07:00,mnr,7.18
2021-12-26T03:08:00,mnr,6.84
2021-12-26T03:09:00,mnr,6.94
2021-12-26T03:10:00,mnr,6.99
2021-12-26T03:11:00,mnr,6.94
2021-12-26T03:12:00,mnr,7.01
2021-12-26T03:13:00,mnr,6.92
2021-12-26T03:14:00,mnr,7.34
2021-12-26T03:15:00,mnr,6.94
2021-12-26T03:16:00,mnr,7.46
2021-12-26T03:17:00,mnr,7.22
2021-12-26T03:18:00,mnr,7.14
2021-12-26T03:19:00,mnr,7.47
2021-12-26T03:20:00,mnr,7.18
2021-12-26T03:21:00,mnr,8.90
2021-12-26T03:22:00,mnr,7.16
2021-12-26T03:23:00,mnr,7.18
2021-12-26T03:24:00,mnr,7.15
2021-12-26T03:25:00,mnr,7.68
2021-12-26T03:26:00,mnr,7.18
2021-12-26T03:27:00,mnr,8.34
2021-12-26T03:28:00,mnr,7.14
2021-12-26T03:29:00,mnr,7.10
2021-12-26T03:30:00,mnr,7.12
2021-12-26T03:31:00,mnr,7.10
2021-12-26T03:32:00,mnr,7.08
2021-12-26T03:33:00,mnr,7.09
2021-12-26T03:34:00,mnr,7.76
2021-12-26T03:35:00,mnr,7.14
2021-12-26T03:36:00,mnr,7.22
2021-12-26T03:37:00,mnr,7.28
2021-12-26T03:38:00,mnr,7.30
2021-12-26T03:39:00,mnr,7.47
2021-12-26T03:40:00,mnr,7.28
2021-12-26T03:41:00,mnr,7.18
2021-12-26T03:42:00,mnr,7.92
2021-12-26T03:43:00,mnr,7.20
2021-12-26T03:44:00,mnr,7.76
2021-12-26T03:45:00,mnr,7.12
2021-12-26T03:46:00,mnr,7.07
2021-12-26T03:47:00,mnr,7.19
2021-12-26T03:48:00,mnr,7.61
2021-12-26T03:49:00,mnr,7.18
2021-12-26T03:50:00,mnr,7.15
2021-12-26T03:51:00,mnr,7.58
2021-12-26T03:52:00,mnr,7.28
2021-12-26T03:53:00,mnr,7.23
2021-12-26T03:54:00,mnr,7.89
2021-12-26T03:55:00,mnr,7.34
2021-12-26T03:56:00,mnr,7.36
2021-12-26T03:57:00,mnr,7.37
2021-12-26T03:58:00,mnr,7.29
2021-12-26T03:59:00,mnr,7.63
2021-12-26T04:00:00,mnr,7.27
2021-12-26T04:01:00,mnr,7.26
2021-12-26T04:02:00,mnr,7.21
2021-12-26T04:03:00,mnr,8.30
2021-12-26T04:04:00,mnr,7.82
2021-12-26T04:05:00,mnr,7.21
2021-12-26T04:06:00,mnr,7.34
2021-12-26T04:07:00,mnr,7.84
2021-12-26T04:08:00,mnr,7.30
2021-12-26T04:09:00,mnr,7.23
2021-12-26T04:10:00,mnr,7.25
2021-12-26T04:11:00,mnr,7.16
2021-12-26T04:12:00,mnr,7.19
2021-12-26T04:13:00,mnr,7.09
2021-12-26T04:14:00,mnr,7.18
2021-12-26T04:15:00,mnr,7.13
2021-12-26T04:16:00,mnr,7.17
2021-12-26T04:17:00,mnr,7.21
2021-12-26T04:18:00,mnr,7.22
2021-12-26T04:19:00,mnr,7.88
2021-12-26T04:20:00,mnr,7.28
2021-12-26T04:21:00,mnr,7.24
2021-12-26T04:22:00,mnr,7.73
2021-12-26T04:23:00,mnr,7.18
2021-12-26T04:24:00,mnr,7.17
2021-12-26T04:25:00,mnr,7.86
2021-12-26T04:26:00,mnr,7.77
2021-12-26T04:27:00,mnr,7.32
2021-12-26T04:28:00,mnr,7.28
2021-12-26T04:29:00,mnr,7.86
2021-12-26T04:30:00,mnr,7.56
2021-12-26T04:31:00,mnr,7.50
2021-12-26T04:32:00,mnr,7.21
2021-12-26T04:33:00,mnr,7.27
2021-12-26T04:34:00,mnr,7.96
2021-12-26T04:35:00,mnr,7.45
2021-12-26T04:36:00,mnr,8.14
2021-12-26T04:37:00,mnr,7.46
2021-12-26T04:38:00,mnr,7.74
2021-12-26T04:39:00,mnr,7.34
2021-12-26T04:40:00,mnr,7.29
2021-12-26T04:41:00,mnr,7.90
2021-12-26T04:42:00,mnr,7.29
2021-12-26T04:43:00,mnr,7.58
2021-12-26T04:44:00,mnr,7.32
2021-12-26T04:45:00,mnr,7.81
2021-12-26T04:46:00,mnr,7.21
2021-12-26T04:47:00,mnr,7.24
2021-12-26T04:48:00,mnr,7.19
2021-12-26T04:49:00,mnr,7.65
2021-12-26T04:50:00,mnr,7.14
2021-12-26T04:51:00,mnr,7.25
2021-12-26T04:52:00,mnr,7.33
2021-12-26T04:53:00,mnr,8.01
2021-12-26T04:54:00,mnr,7.31
2021-12-26T04:55:00,mnr,7.91
2021-12-26T04:56:00,mnr,7.33
2021-12-26T04:57:00,mnr,7.70
2021-12-26T04:58:00,mnr,7.15
2021-12-26T04:59:00,mnr,7.20
2021-12-26T05:00:00,mnr,7.26
2021-12-26T05:01:00,mnr,8.17
2021-12-26T05:02:00,mnr,10.94
2021-12-26T05:03:00,mnr,12.09
2021-12-26T05:04:00,mnr,12.97
2021-12-26T05:05:00,mnr,12.59
2021-12-26T05:06:00,mnr,12.52
2021-12-26T05:07:00,mnr,12.62
2021-12-26T05:08:00,mnr,13.04
2021-12-26T05:09:00,mnr,12.86
2021-12-26T05:10:00,mnr,12.53
2021-12-26T05:11:00,mnr,12.55
2021-12-26T05:12:00,mnr,13.64
2021-12-26T05:13:00,mnr,12.50
2021-12-26T05:14:00,mnr,12.50
2021-12-26T05:15:00,mnr,12.60
2021-12-26T05:16:00,mnr,12.55
2021-12-26T05:17:00,mnr,12.50
2021-12-26T05:18:00,mnr,12.51
2021-12-26T05:19:00,mnr,12.52
2021-12-26T05:20:00,mnr,12.46
2021-12-26T05:21:00,mnr,12.49
2021-12-26T05:22:00,mnr,12.55
2021-12-26T05:23:00,mnr,14.09
2021-12-26T05:24:00,mnr,12.46
2021-12-26T05:25:00,mnr,12.52
2021-12-26T05:26:00,mnr,12.55
2021-12-26T05:27:00,mnr,14.12
2021-12-26T05:28:00,mnr,12.62
2021-12-26T05:29:00,mnr,12.56
2021-12-26T05:30:00,mnr,12.56
2021-12-26T05:31:00,mnr,13.90
2021-12-26T05:32:00,mnr,13.38
2021-12-26T05:33:00,mnr,12.56
2021-12-26T05:34:00,mnr,12.48
2021-12-26T05:35:00,mnr,12.72
2021-12-26T05:36:00,mnr,12.38
2021-12-26T05:37:00,mnr,12.35
2021-12-26T05:38:00,mnr,13.09
2021-12-26T05:39:00,mnr,12.29
2021-12-26T05:40:00,mnr,12.32
2021-12-26T05:41:00,mnr,12.31
2021-12-26T05:42:00,mnr,12.32
2021-12-26T05:43:00,mnr,12.30
2021-12-26T05:44:00,mnr,12.28
2021-12-26T05:45:00,mnr,12.33
2021-12-26T05:46:00,mnr,12.30
2021-12-26T05:47:00,mnr,12.32
2021-12-26T05:48:00,mnr,12.95
2021-12-26T05:49:00,mnr,12.33
2021-12-26T05:50:00,mnr,12.32
2021-12-26T05:51:00,mnr,12.30
2021-12-26T05:52:00,mnr,12.88
2021-12-26T05:53:00,mnr,12.33
2021-12-26T05:54:00,mnr,12.75
2021-12-26T05:55:00,mnr,12.28
2021-12-26T05:56:00,mnr,12.28
2021-12-26T05:57:00,mnr,12.80
2021-12-26T05:58:00,mnr,13.03
2021-12-26T05:59:00,mnr,12.23
2021-12-26T06:00:00,mnr,12.30
2021-12-26T06:01:00,mnr,12.59
2021-12-26T06:02:00,mnr,12.63
2021-12-26T06:03:00,mnr,12.57
2021-12-26T06:04:00,mnr,13.20
2021-12-26T06:05:00,mnr,12.70
2021-12-26T06:06:00,mnr,13.44
2021-12-26T06:07:00,mnr,12.72
2021-12-26T06:08:00,mnr,12.70
2021-12-26T06:09:00,mnr,12.69
2021-12-26T06:10:00,mnr,12.72
2021-12-26T06:11:00,mnr,12.62
2021-12-26T06:12:00,mnr,12.65
2021-12-26T06:13:00,mnr,12.74
2021-12-26T06:14:00,mnr,12.66
2021-12-26T06:15:00,mnr,13.92
2021-12-26T06:16:00,mnr,12.65
2021-12-26T06:17:00,mnr,13.72
2021-12-26T06:18:00,mnr,12.63
2021-12-26T06:19:00,mnr,12.67
2021-12-26T06:20:00,mnr,13.02
2021-12-26T06:21:00,mnr,12.99
2021-12-26T06:22:00,mnr,12.59
2021-12-26T06:23:00,mnr,12.65
2021-12-26T06:24:00,mnr,12.65
2021-12-26T06:25:00,mnr,13.45
2021-12-26T06:26:00,mnr,12.70
2021-12-26T06:27:00,mnr,12.76
2021-12-26T06:28:00,mnr,12.75
2021-12-26T06:29:00,mnr,12.76
2021-12-26T06:30:00,mnr,12.69
2021-12-26T06:31:00,mnr,12.69
2021-12-26T06:32:00,mnr,13.49
2021-12-26T06:33:00,mnr,12.69
2021-12-26T06:34:00,mnr,12.60
2021-12-26T06:35:00,mnr,12.60
2021-12-26T06:36:00,mnr,12.70
2021-12-26T06:37:00,mnr,12.67
2021-12-26T06:38:00,mnr,12.63
2021-12-26T06:39:00,mnr,13.08
2021-12-26T06:40:00,mnr,12.45
2021-12-26T06:41:00,mnr,12.39
2021-12-26T06:42:00,mnr,12.32
2021-12-26T06:43:00,mnr,12.37
2021-12-26T06:44:00,mnr,12.90
2021-12-26T06:45:00,mnr,12.42
2021-12-26T06:46:00,mnr,12.94
2021-12-26T06:47:00,mnr,12.37
2021-12-26T06:48:00,mnr,12.83
2021-12-26T06:49:00,mnr,12.44
2021-12-26T06:50:00,mnr,12.90
2021-12-26T06:51:00,mnr,13.05
2021-12-26T06:52:00,mnr,12.81
2021-12-26T06:53:00,mnr,12.19
2021-12-26T06:54:00,mnr,12.15
2021-12-26T06:55:00,mnr,13.54
2021-12-26T06:56:00,mnr,12.28
2021-12-26T06:57:00,mnr,12.38
2021-12-26T06:58:00,mnr,12.33
2021-12-26T06:59:00,mnr,12.42
2021-12-26T07:00:00,mnr,12.49
2021-12-26T07:01:00,mnr,13.05
2021-12-26T07:02:00,mnr,12.38
2021-12-26T07:03:00,mnr,12.40
2021-12-26T07:04:00,mnr,12.41
2021-12-26T07:05:00,mnr,12.34
2021-12-26T07:06:00,mnr,12.35
2021-12-26T07:07:00,mnr,12.38
2021-12-26T07:08:00,mnr,12.36
2021-12-26T07:09:00,mnr,12.36
2021-12-26T07:10:00,mnr,12.38
2021-12-26T07:11:00,mnr,12.85
2021-12-26T07:12:00,mnr,12.40
2021-12-26T07:13:00,mnr,13.00
2021-12-26T07:14:00,mnr,12.39
2021-12-26T07:15:00,mnr,12.91
2021-12-26T07:16:00,mnr,12.38
2021-12-26T07:17:00,mnr,12.38
2021-12-26T07:18:00,mnr,12.41
2021-12-26T07:19:00,mnr,12.41
2021-12-26T07:20:00,mnr,11.82
2021-12-26T07:21:00,mnr,12.48
2021-12-26T07:22:00,mnr,11.95
2021-12-26T07:23:00,mnr,11.90
2021-12-26T07:24:00,mnr,12.25
2021-12-26T07:25:00,mnr,12.77
2021-12-26T07:26:00,mnr,11.94
2021-12-26T07:27:00,mnr,12.03
2021-12-26T07:28:00,mnr,12.31
2021-12-26T07:29:00,mnr,11.86
2021-12-26T07:30:00,mnr,11.89
2021-12-26T07:31:00,mnr,12.02
2021-12-26T07:32:00,mnr,13.27
2021-12-26T07:33:00,mnr,11.95
2021-12-26T07:34:00,mnr,12.38
2021-12-26T07:35:00,mnr,11.97
2021-12-26T07:36:00,mnr,11.94
2021-12-26T07:37:00,mnr,12.01
2021-12-26T07:38:00,mnr,12.32
2021-12-26T07:39:00,mnr,11.84
2021-12-26T07:40:00,mnr,11.84
2021-12-26T07:41:00,mnr,11.85
2021-12-26T07:42:00,mnr,13.15
2021-12-26T07:43:00,mnr,12.54
2021-12-26T07:44:00,mnr,11.94
2021-12-26T07:45:00,mnr,11.92
2021-12-26T07:46:00,mnr,12.13
2021-12-26T07:47:00,mnr,11.92
2021-12-26T07:48:00,mnr,11.94
2021-12-26T07:49:00,mnr,11.96
2021-12-26T07:50:00,mnr,11.97
2021-12-26T07:51:00,mnr,11.94
2021-12-26T07:52:00,mnr,11.95
2021-12-26T07:53:00,mnr,11.86
2021-12-26T07:54:00,mnr,11.90
2021-12-26T07:55:00,mnr,11.81
2021-12-26T07:56:00,mnr,12.21
2021-12-26T07:57:00,mnr,13.11
2021-12-26T07:58:00,mnr,11.80
2021-12-26T07:59:00,mnr,11.84
2021-12-26T08:00:00,mnr,12.43
2021-12-26T08:01:00,mnr,12.47
2021-12-26T08:02:00,mnr,11.77
2021-12-26T08:03:00,mnr,12.01
2021-12-26T08:04:00,mnr,11.77
2021-12-26T08:05:00,mnr,12.32
2021-12-26T08:06:00,mnr,11.80
2021-12-26T08:07:00,mnr,11.68
2021-12-26T08:08:00,mnr,11.52
2021-12-26T08:09:00,mnr,11.48
2021-12-26T08:10:00,mnr,11.66
2021-12-26T08:11:00,mnr,11.33
2021-12-26T08:12:00,mnr,11.22
2021-12-26T08:13:00,mnr,11.12
2021-12-26T08:14:00,mnr,10.95
2021-12-26T08:15:00,mnr,10.86
2021-12-26T08:16:00,mnr,11.39
2021-12-26T08:17:00,mnr,11.31
2021-12-26T08:18:00,mnr,10.65
2021-12-26T08:19:00,mnr,11.11
2021-12-26T08:20:00,mnr,10.37
2021-12-26T08:21:00,mnr,10.23
2021-12-26T08:22:00,mnr,10.22
2021-12-26T08:23:00,mnr,10.21
2021-12-26T08:24:00,mnr,10.17
2021-12-26T08:25:00,mnr,10.25
2021-12-26T08:26:00,mnr,10.12
2021-12-26T08:27:00,mnr,10.53
2021-12-26T08:28:00,mnr,10.62
2021-12-26T08:29:00,mnr,10.11
2021-12-26T08:30:00,mnr,10.13
2021-12-26T08:31:00,mnr,10.84
2021-12-26T08:32:00,mnr,10.66
2021-12-26T08:33:00,mnr,10.24
2021-12-26T08:34:00,mnr,11.14
2021-12-26T08:35:00,mnr,10.28
2021-12-26T08:36:00,mnr,10.59
2021-12-26T08:37:00,mnr,10.15
2021-12-26T08:38:00,mnr,10.82
2021-12-26T08:39:00,mnr,10.07
2021-12-26T08:40:00,mnr,10.21
2021-12-26T08:41:00,mnr,10.31
2021-12-26T08:42:00,mnr,10.32
2021-12-26T08:43:00,mnr,10.31
2021-12-26T08:44:00,mnr,10.33
2021-12-26T08:45:00,mnr,10.31
2021-12-26T08:46:00,mnr,10.70
2021-12-26T08:47:00,mnr,10.20
2021-12-26T08:48:00,mnr,10.22
2021-12-26T08:49:00,mnr,10.88
2021-12-26T08:50:00,mnr,10.33
2021-12-26T08:51:00,mnr,10.44
2021-12-26T08:52:00,mnr,10.14
2021-12-26T08:53:00,mnr,10.02
2021-12-26T08:54:00,mnr,10.06
2021-12-26T08:55:00,mnr,10.60
2021-12-26T08:56:00,mnr,10.11
2021-12-26T08:57:00,mnr,10.13
2021-12-26T08:58:00,mnr,10.48
2021-12-26T08:59:00,mnr,10.60
2021-12-26T09:00:00,mnr,10.77
2021-12-26T09:01:00,mnr,10.10
2021-12-26T09:02:00,mnr,10.11
2021-12-26T09:03:00,mnr,10.16
2021-12-26T09:04:00,mnr,10.02
2021-12-26T09:05:00,mnr,10.03
2021-12-26T09:06:00,mnr,11.22
2021-12-26T09:07:00,mnr,10.19
2021-12-26T09:08:00,mnr,10.32
2021-12-26T09:09:00,mnr,10.09
2021-12-26T09:10:00,mnr,10.68
2021-12-26T09:11:00,mnr,10.11
2021-12-26T09:12:00,mnr,10.09
2021-12-26T09:13:00,mnr,10.13
2021-12-26T09:14:00,mnr,10.24
2021-12-26T09:15:00,mnr,10.92
2021-12-26T09:16:00,mnr,10.80
2021-12-26T09:17:00,mnr,10.18
2021-12-26T09:18:00,mnr,10.17
2021-12-26T09:19:00,mnr,10.20
2021-12-26T09:20:00,mnr,10.20
2021-12-26T09:21:00,mnr,10.11
2021-12-26T09:22:00,mnr,10.60
2021-12-26T09:23:00,mnr,10.04
2021-12-26T09:24:00,mnr,10.25
2021-12-26T09:25:00,mnr,10.05
2021-12-26T09:26:00,mnr,10.56
2021-12-26T09:27:00,mnr,10.06
2021-12-26T09:28:00,mnr,10.16
2021-12-26T09:29:00,mnr,10.09
2021-12-26T09:30:00,mnr,10.12
2021-12-26T09:31:00,mnr,10.59
2021-12-26T09:32:00,mnr,10.76
2021-12-26T09:33:00,mnr,10.06
2021-12-26T09:34:00,mnr,10.15
2021-12-26T09:35:00,mnr,10.28
2021-12-26T09:36:00,mnr,10.28
2021-12-26T09:37:00,mnr,10.31
2021-12-26T09:38:00,mnr,10.28
2021-12-26T09:39:00,mnr,10.26
2021-12-26T09:40:00,mnr,10.31
2021-12-26T09:41:00,mnr,10.73
2021-12-26T09:42:00,mnr,10.49
2021-12-26T09:43:00,mnr,10.59
2021-12-26T09:44:00,mnr,10.25
2021-12-26T09:45:00,mnr,10.69
2021-12-26T09:46:00,mnr,10.27
2021-12-26T09:47:00,mnr,10.29
2021-12-26T09:48:00,mnr,10.31
2021-12-26T09:49:00,mnr,10.87
2021-12-26T09:50:00,mnr,10.39
2021-12-26T09:51:00,mnr,10.36
2021-12-26T09:52:00,mnr,10.41
2021-12-26T09:53:00,mnr,11.51
2021-12-26T09:54:00,mnr,10.91
2021-12-26T09:55:00,mnr,10.95
2021-12-26T09:56:00,mnr,10.24
2021-12-26T09:57:00,mnr,10.22
2021-12-26T09:58:00,mnr,10.99
2021-12-26T09:59:00,mnr,10.23
2021-12-26T10:00:00,mnr,10.19
2021-12-26T10:01:00,mnr,10.16
2021-12-26T10:02:00,mnr,10.20
2021-12-26T10:03:00,mnr,10.14
2021-12-26T10:04:00,mnr,10.36
2021-12-26T10:05:00,mnr,10.94
2021-12-26T10:06:00,mnr,10.23
2021-12-26T10:07:00,mnr,10.28
2021-12-26T10:08:00,mnr,10.29
2021-12-26T10:09:00,mnr,10.29
2021-12-26T10:10:00,mnr,10.48
2021-12-26T10:11:00,mnr,10.26
2021-12-26T10:12:00,mnr,10.73
2021-12-26T10:13:00,mnr,10.84
2021-12-26T10:14:00,mnr,10.21
2021-12-26T10:15:00,mnr,10.23
2021-12-26T10:16:00,mnr,10.71
2021-12-26T10:17:00,mnr,10.22
2021-12-26T10:18:00,mnr,10.71
2021-12-26T10:19:00,mnr,10.28
2021-12-26T10:20:00,mnr,10.77
2021-12-26T10:21:00,mnr,10.16
2021-12-26T10:22:00,mnr,10.59
2021-12-26T10:23:00,mnr,10.22
2021-12-26T10:24:00,mnr,10.24
2021-12-26T10:25:00,mnr,10.20
2021-12-26T10:26:00,mnr,10.20
2021-12-26T10:27:00,mnr,10.12
2021-12-26T10:28:00,mnr,10.12
2021-12-26T10:29:00,mnr,10.15
2021-12-26T10:30:00,mnr,10.04
2021-12-26T10:31:00,mnr,10.27
2021-12-26T10:32:00,mnr,10.12
2021-12-26T10:33:00,mnr,10.10
2021-12-26T10:34:00,mnr,10.10
2021-12-26T10:35:00,mnr,10.60
2021-12-26T10:36:00,mnr,10.10
2021-12-26T10:37:00,mnr,10.09
2021-12-26T10:38:00,mnr,10.24
2021-12-26T10:39:00,mnr,10.55
2021-12-26T10:40:00,mnr,10.12
2021-12-26T10:41:00,mnr,10.83
2021-12-26T10:42:00,mnr,10.07
2021-12-26T10:43:00,mnr,10.08
2021-12-26T10:44:00,mnr,10.04
2021-12-26T10:45:00,mnr,10.14
2021-12-26T10:46:00,mnr,10.02
2021-12-26T10:47:00,mnr,10.27
2021-12-26T10:48:00,mnr,10.17
2021-12-26T10:49:00,mnr,10.12
2021-12-26T10:50:00,mnr,10.67
2021-12-26T10:51:00,mnr,10.11
2021-12-26T10:52:00,mnr,10.14
2021-12-26T10:53:00,mnr,10.07
2021-12-26T10:54:00,mnr,10.57
2021-12-26T10:55:00,mnr,10.80
2021-12-26T10:56:00,mnr,10.22
2021-12-26T10:57:00,mnr,10.11
2021-12-26T10:58:00,mnr,10.72
2021-12-26T10:59:00,mnr,10.26
2021-12-26T11:00:00,mnr,10.17
2021-12-26T11:01:00,mnr,10.23
2021-12-26T11:02:00,mnr,10.09
2021-12-26T11:03:00,mnr,10.15
2021-12-26T11:04:00,mnr,10.07
2021-12-26T11:05:00,mnr,10.04
2021-12-26T11:06:00,mnr,10.06
2021-12-26T11:07:00,mnr,10.07
2021-12-26T11:08:00,mnr,10.00
2021-12-26T11:09:00,mnr,10.31
2021-12-26T11:10:00,mnr,10.04
2021-12-26T11:11:00,mnr,10.09
2021-12-26T11:12:00,mnr,10.11
2021-12-26T11:13:00,mnr,10.61
2021-12-26T11:14:00,mnr,10.66
2021-12-26T11:15:00,mnr,10.04
2021-12-26T11:16:00,mnr,10.07
2021-12-26T11:17:00,mnr,10.52
2021-12-26T11:18:00,mnr,9.99
2021-12-26T11:19:00,mnr,9.97
2021-12-26T11:20:00,mnr,10.90
2021-12-26T11:21:00,mnr,10.62
2021-12-26T11:22:00,mnr,10.78
2021-12-26T11:23:00,mnr,10.26
2021-12-26T11:24:00,mnr,10.31
2021-12-26T11:25:00,mnr,10.35
2021-12-26T11:26:00,mnr,10.30
2021-12-26T11:27:00,mnr,10.30
2021-12-26T11:28:00,mnr,10.28
2021-12-26T11:29:00,mnr,10.22
2021-12-26T11:30:00,mnr,10.24
2021-12-26T11:31:00,mnr,11.18
2021-12-26T11:32:00,mnr,12.14
2021-12-26T11:33:00,mnr,12.21
2021-12-26T11:34:00,mnr,12.15
2021-12-26T11:35:00,mnr,12.21
2021-12-26T11:36:00,mnr,12.62
2021-12-26T11:37:00,mnr,12.22
2021-12-26T11:38:00,mnr,12.10
2021-12-26T11:39:00,mnr,12.45
2021-12-26T11:40:00,mnr,12.56
2021-12-26T11:41:00,mnr,12.03
2021-12-26T11:42:00,mnr,12.75
2021-12-26T11:43:00,mnr,12.71
2021-12-26T11:44:00,mnr,12.09
2021-12-26T11:45:00,mnr,12.09
2021-12-26T11:46:00,mnr,12.14
2021-12-26T11:47:00,mnr,12.33
2021-12-26T11:48:00,mnr,12.77
2021-12-26T11:49:00,mnr,12.11
2021-12-26T11:50:00,mnr,12.16
2021-12-26T11:51:00,mnr,12.15
2021-12-26T11:52:00,mnr,12.07
2021-12-26T11:53:00,mnr,12.29
2021-12-26T11:54:00,mnr,12.03
2021-12-26T11:55:00,mnr,12.55
2021-12-26T11:56:00,mnr,12.13
2021-12-26T11:57:00,mnr,12.03
2021-12-26T11:58:00,mnr,11.98
2021-12-26T11:59:00,mnr,12.34
2021-12-26T12:00:00,mnr,11.86
2021-12-26T12:01:00,mnr,11.87
2021-12-26T12:02:00,mnr,12.50
2021-12-26T12:03:00,mnr,12.35
2021-12-26T12:04:00,mnr,11.77
2021-12-26T12:05:00,mnr,11.79
2021-12-26T12:06:00,mnr,12.70
2021-12-26T12:07:00,mnr,11.91
2021-12-26T12:08:00,mnr,11.26
2021-12-26T12:09:00,mnr,11.20
2021-12-26T12:10:00,mnr,11.16
2021-12-26T12:11:00,mnr,11.08
2021-12-26T12:12:00,mnr,11.02
2021-12-26T12:13:00,mnr,10.89
2021-12-26T12:14:00,mnr,11.00
2021-12-26T12:15:00,mnr,10.90
2021-12-26T12:16:00,mnr,11.93
2021-12-26T12:17:00,mnr,10.95
2021-12-26T12:18:00,mnr,11.47
2021-12-26T12:19:00,mnr,10.98
2021-12-26T12:20:00,mnr,11.31
2021-12-26T12:21:00,mnr,12.82
2021-12-26T12:22:00,mnr,13.11
2021-12-26T12:23:00,mnr,11.94
2021-12-26T12:24:00,mnr,12.55
2021-12-26T12:25:00,mnr,11.95
2021-12-26T12:26:00,mnr,12.35
2021-12-26T12:27:00,mnr,11.80
2021-12-26T12:28:00,mnr,12.64
2021-12-26T12:29:00,mnr,12.41
2021-12-26T12:30:00,mnr,11.83
2021-12-26T12:31:00,mnr,12.13
2021-12-26T12:32:00,mnr,11.88
2021-12-26T12:33:00,mnr,12.00
2021-12-26T12:34:00,mnr,11.89
2021-12-26T12:35:00,mnr,11.92
2021-12-26T12:36:00,mnr,11.90
2021-12-26T12:37:00,mnr,12.27
2021-12-26T12:38:00,mnr,11.85
2021-12-26T12:39:00,mnr,11.78
2021-12-26T12:40:00,mnr,11.87
2021-12-26T12:41:00,mnr,13.18
2021-12-26T12:42:00,mnr,11.90
2021-12-26T12:43:00,mnr,11.90
2021-12-26T12:44:00,mnr,11.90
2021-12-26T12:45:00,mnr,12.20
2021-12-26T12:46:00,mnr,11.93
2021-12-26T12:47:00,mnr,11.94
2021-12-26T12:48:00,mnr,12.34
2021-12-26T12:49:00,mnr,11.93
2021-12-26T12:50:00,mnr,11.78
2021-12-26T12:51:00,mnr,11.74
2021-12-26T12:52:00,mnr,11.76
2021-12-26T12:53:00,mnr,11.78
2021-12-26T12:54:00,mnr,12.46
2021-12-26T12:55:00,mnr,11.86
2021-12-26T12:56:00,mnr,11.79
2021-12-26T12:57:00,mnr,11.78
2021-12-26T12:58:00,mnr,12.05
2021-12-26T12:59:00,mnr,11.15
2021-12-26T13:00:00,mnr,11.61
2021-12-26T13:01:00,mnr,10.95
2021-12-26T13:02:00,mnr,11.58
2021-12-26T13:03:00,mnr,11.46
2021-12-26T13:04:00,mnr,11.45
2021-12-26T13:05:00,mnr,10.92
2021-12-26T13:06:00,mnr,11.07
2021-12-26T13:07:00,mnr,11.17
2021-12-26T13:08:00,mnr,11.17
2021-12-26T13:09:00,mnr,11.21
2021-12-26T13:10:00,mnr,11.20
2021-12-26T13:11:00,mnr,11.16
2021-12-26T13:12:00,mnr,11.54
2021-12-26T13:13:00,mnr,11.64
2021-12-26T13:14:00,mnr,11.62
2021-12-26T13:15:00,mnr,11.68
2021-12-26T13:16:00,mnr,11.71
2021-12-26T13:17:00,mnr,11.74
2021-12-26T13:18:00,mnr,11.66
2021-12-26T13:19:00,mnr,12.23
2021-12-26T13:20:00,mnr,11.67
2021-12-26T13:21:00,mnr,11.69
2021-12-26T13:22:00,mnr,11.63
2021-12-26T13:23:00,mnr,12.15
2021-12-26T13:24:00,mnr,11.59
2021-12-26T13:25:00,mnr,11.69
2021-12-26T13:26:00,mnr,11.57
2021-12-26T13:27:00,mnr,11.62
2021-12-26T13:28:00,mnr,11.60